Location: Bad Dürkheim
(49.4618°N, 8.1724°E)
Time: 04:42:17
(UTC+00:00)

USA 59 Rocket - Pass Details

Date: 14 June 2025
Orbit: 372 x 1694 km, 63.3° (Epoch: 12 July)

Event Time Altitude Azimuth Distance (km) Brightness Sun altitude
Rises 21:11:01 0° 324° (NW) 2,278 5.2 -11.1°
Reaches altitude 10° 21:13:52 10° 357° (N) 1,510 3.1 -11.4°
Maximum altitude 21:15:24 13° 26° (NNE) 1,421 2.4 -11.5°
Drops below altitude 10° 21:17:05 10° 53° (NE) 1,666 2.4 -11.6°
Sets 21:20:36 0° 83° (E) 2,789 3.2 -11.9°
